| time (UTC) | temp F | wind direction | speed MPH | gust MPH | rain 1hr in | rain 24hr in | rain mn in | humidity % | barometer mb |
| 20260506070950 | 56 | 0 | 0.0 | 0.0 | 0.00 | 0.00 | 0.00 | 92 | 1010.7 |
| 20260506070450 | 56 | 0 | 0.0 | 0.0 | 0.00 | 0.00 | 0.00 | 92 | 1010.7 |
| 20260506062450 | 56 | 292 | 0.0 | 1.0 | 0.00 | 0.00 | 0.00 | 91 | 1010.6 |
| 20260506061949 | 56 | 0 | 0.0 | 0.0 | 0.00 | 0.00 | 0.00 | 90 | 1010.6 |
| 20260506061450 | 57 | 0 | 0.0 | 0.0 | 0.00 | 0.00 | 0.00 | 90 | 1010.7 |
| 20260506060950 | 57 | 0 | 0.0 | 0.0 | 0.00 | 0.00 | 0.00 | 89 | 1010.7 |
| 20260506060449 | 57 | 0 | 0.0 | 0.0 | 0.00 | 0.00 | 0.00 | 89 | 1010.6 |
| 20260506050949 | 59 | 80 | 0.0 | 1.0 | 0.00 | 0.00 | 0.00 | 84 | 1011.0 |
| 20260506050450 | 59 | 345 | 0.0 | 1.0 | 0.00 | 0.00 | 0.00 | 84 | 1011.0 |
| 20260506044949 | 60 | 79 | 0.0 | 1.0 | 0.00 | 0.00 | 0.00 | 83 | 1011.0 |
| 20260506044449 | 60 | 67 | 0.0 | 2.0 | 0.00 | 0.00 | 0.00 | 82 | 1011.2 |
| 20260506043950 | 60 | 58 | 0.0 | 2.0 | 0.00 | 0.00 | 0.00 | 82 | 1011.0 |
| 20260506043450 | 60 | 0 | 0.0 | 0.0 | 0.00 | 0.00 | 0.00 | 81 | 1011.0 |
| 20260506042950 | 60 | 51 | 0.0 | 2.0 | 0.00 | 0.00 | 0.00 | 81 | 1011.0 |
| 20260506042449 | 60 | 0 | 0.0 | 0.0 | 0.00 | 0.00 | 0.00 | 81 | 1011.0 |
| 20260506041949 | 60 | 0 | 0.0 | 0.0 | 0.00 | 0.00 | 0.00 | 80 | 1010.9 |
| 20260506041449 | 60 | 119 | 1.0 | 3.0 | 0.00 | 0.00 | 0.00 | 80 | 1010.9 |
| 20260506040950 | 60 | 0 | 0.0 | 0.0 | 0.00 | 0.00 | 0.00 | 79 | 1010.9 |
| 20260506040450 | 61 | 0 | 0.0 | 0.0 | 0.00 | 0.00 | 0.00 | 79 | 1010.9 |
| 20260506035950 | 61 | 81 | 0.0 | 0.0 | 0.00 | 0.00 | 0.00 | 78 | 1010.9 |
| 20260506035450 | 61 | 109 | 0.0 | 2.0 | 0.00 | 0.00 | 0.00 | 78 | 1011.0 |
| 20260506034949 | 61 | 57 | 0.0 | 1.0 | 0.00 | 0.00 | 0.00 | 78 | 1011.0 |
| 20260506034450 | 61 | 80 | 0.0 | 2.0 | 0.00 | 0.00 | 0.00 | 77 | 1011.0 |
| 20260506033950 | 61 | 65 | 0.0 | 1.0 | 0.00 | 0.00 | 0.00 | 76 | 1010.9 |
| 20260506033449 | 62 | 49 | 0.0 | 1.0 | 0.00 | 0.00 | 0.00 | 76 | 1010.9 |
| 20260506032949 | 62 | 64 | 0.0 | 2.0 | 0.00 | 0.00 | 0.00 | 76 | 1010.8 |
| 20260506032450 | 62 | 0 | 0.0 | 0.0 | 0.00 | 0.00 | 0.00 | 75 | 1010.8 |
| 20260506031949 | 62 | 138 | 0.0 | 2.0 | 0.00 | 0.00 | 0.00 | 75 | 1010.8 |
| 20260506031449 | 62 | 120 | 0.0 | 1.0 | 0.00 | 0.00 | 0.00 | 75 | 1010.8 |
| 20260506030949 | 62 | 0 | 0.0 | 0.0 | 0.00 | 0.00 | 0.00 | 74 | 1010.8 |
| 20260506030449 | 62 | 143 | 1.0 | 3.0 | 0.00 | 0.00 | 0.00 | 74 | 1010.8 |
| 20260506025949 | 62 | 0 | 0.0 | 0.0 | 0.00 | 0.00 | 0.00 | 74 | 1010.8 |
| 20260506025450 | 63 | 61 | 0.0 | 1.0 | 0.00 | 0.00 | 0.00 | 74 | 1010.8 |
| 20260506024949 | 63 | 76 | 0.0 | 2.0 | 0.00 | 0.00 | 0.00 | 73 | 1010.9 |
| 20260506024450 | 63 | 59 | 0.0 | 3.0 | 0.00 | 0.00 | 0.00 | 73 | 1010.9 |
| 20260506023949 | 63 | 68 | 0.0 | 1.0 | 0.00 | 0.00 | 0.00 | 72 | 1010.9 |
| 20260506023450 | 63 | 29 | 0.0 | 1.0 | 0.00 | 0.00 | 0.00 | 72 | 1010.8 |
| 20260506022950 | 63 | 101 | 1.0 | 2.0 | 0.00 | 0.00 | 0.00 | 72 | 1010.9 |
| 20260506022450 | 64 | 0 | 0.0 | 0.0 | 0.00 | 0.00 | 0.00 | 71 | 1010.8 |
| 20260506021951 | 64 | 100 | 1.0 | 2.0 | 0.00 | 0.00 | 0.00 | 71 | 1010.8 |
| 20260506021449 | 64 | 0 | 0.0 | 0.0 | 0.00 | 0.00 | 0.00 | 71 | 1010.9 |
| 20260506020950 | 64 | 0 | 0.0 | 0.0 | 0.00 | 0.00 | 0.00 | 71 | 1010.8 |
| 20260506020449 | 64 | 104 | 0.0 | 1.0 | 0.00 | 0.00 | 0.00 | 71 | 1010.7 |
| 20260506015950 | 64 | 240 | 0.0 | 0.0 | 0.00 | 0.00 | 0.00 | 71 | 1010.7 |
| 20260506015451 | 64 | 106 | 1.0 | 2.0 | 0.00 | 0.00 | 0.00 | 70 | 1010.7 |
| 20260506014950 | 64 | 126 | 1.0 | 3.0 | 0.00 | 0.00 | 0.00 | 70 | 1010.6 |
| 20260506014451 | 64 | 105 | 1.0 | 2.0 | 0.00 | 0.00 | 0.00 | 71 | 1010.5 |
| 20260506013949 | 64 | 0 | 0.0 | 0.0 | 0.00 | 0.00 | 0.00 | 71 | 1010.5 |
| 20260506013450 | 64 | 140 | 0.0 | 1.0 | 0.00 | 0.00 | 0.00 | 70 | 1010.5 |
| 20260506012950 | 64 | 12 | 0.0 | 1.0 | 0.00 | 0.00 | 0.00 | 70 | 1010.3 |
| 20260506012450 | 64 | 78 | 0.0 | 1.0 | 0.00 | 0.00 | 0.00 | 70 | 1010.4 |
| 20260506011949 | 64 | 101 | 0.0 | 2.0 | 0.00 | 0.00 | 0.00 | 69 | 1010.3 |
| 20260506011449 | 64 | 64 | 0.0 | 1.0 | 0.00 | 0.00 | 0.00 | 69 | 1010.2 |
| 20260506010950 | 65 | 112 | 0.0 | 2.0 | 0.00 | 0.00 | 0.00 | 69 | 1010.2 |
| 20260506010449 | 65 | 79 | 0.0 | 2.0 | 0.00 | 0.00 | 0.00 | 69 | 1010.2 |
| 20260506005953 | 65 | 57 | 0.0 | 1.0 | 0.00 | 0.00 | 0.00 | 69 | 1010.1 |
| 20260506005450 | 65 | 67 | 0.0 | 1.0 | 0.00 | 0.00 | 0.00 | 68 | 1010.0 |
| 20260506004950 | 65 | 48 | 1.0 | 3.0 | 0.00 | 0.00 | 0.00 | 68 | 1010.0 |
| 20260506004451 | 65 | 101 | 0.0 | 0.0 | 0.00 | 0.00 | 0.00 | 68 | 1010.0 |
| 20260506003953 | 65 | 290 | 0.0 | 1.0 | 0.00 | 0.00 | 0.00 | 67 | 1009.9 |
| 20260506003449 | 65 | 100 | 0.0 | 2.0 | 0.00 | 0.00 | 0.00 | 67 | 1009.7 |
| 20260506002950 | 66 | 0 | 0.0 | 0.0 | 0.00 | 0.00 | 0.00 | 67 | 1009.8 |
| 20260506002450 | 66 | 80 | 0.0 | 2.0 | 0.00 | 0.00 | 0.00 | 66 | 1009.6 |
| 20260506001950 | 66 | 63 | 0.0 | 2.0 | 0.00 | 0.00 | 0.00 | 66 | 1009.6 |
| 20260506001449 | 66 | 108 | 0.0 | 2.0 | 0.00 | 0.00 | 0.00 | 66 | 1009.6 |
| 20260506000949 | 67 | 115 | 1.0 | 2.0 | 0.00 | 0.00 | 0.00 | 65 | 1009.6 |
| 20260506000450 | 67 | 97 | 0.0 | 1.0 | 0.00 | 0.00 | 0.00 | 65 | 1009.5 |
| 20260505235949 | 67 | 55 | 0.0 | 0.0 | 0.00 | 0.00 | 0.00 | 65 | 1009.5 |
| 20260505235449 | 67 | 110 | 0.0 | 2.0 | 0.00 | 0.00 | 0.00 | 64 | 1009.4 |
| 20260505234950 | 67 | 234 | 0.0 | 2.0 | 0.00 | 0.00 | 0.00 | 64 | 1009.4 |
| 20260505234450 | 68 | 95 | 1.0 | 2.0 | 0.00 | 0.00 | 0.00 | 63 | 1009.2 |
| 20260505233950 | 68 | 0 | 0.0 | 0.0 | 0.00 | 0.00 | 0.00 | 63 | 1009.1 |
| 20260505233449 | 68 | 117 | 0.0 | 1.0 | 0.00 | 0.00 | 0.00 | 63 | 1009.1 |
| 20260505232949 | 69 | 291 | 0.0 | 3.0 | 0.00 | 0.00 | 0.00 | 62 | 1009.0 |
| 20260505232451 | 69 | 66 | 0.0 | 2.0 | 0.00 | 0.00 | 0.00 | 62 | 1008.9 |
| 20260505231949 | 69 | 100 | 1.0 | 2.0 | 0.00 | 0.00 | 0.00 | 61 | 1008.9 |
| 20260505231449 | 70 | 0 | 0.0 | 0.0 | 0.00 | 0.00 | 0.00 | 61 | 1008.8 |
| 20260505230949 | 70 | 97 | 0.0 | 1.0 | 0.00 | 0.00 | 0.00 | 60 | 1008.8 |
| 20260505230449 | 70 | 126 | 0.0 | 1.0 | 0.00 | 0.00 | 0.00 | 60 | 1008.8 |
| 20260505225950 | 70 | 128 | 1.0 | 2.0 | 0.00 | 0.00 | 0.00 | 60 | 1008.7 |
| 20260505225451 | 70 | 96 | 0.0 | 2.0 | 0.00 | 0.00 | 0.00 | 59 | 1008.6 |
| 20260505224950 | 70 | 111 | 0.0 | 2.0 | 0.00 | 0.00 | 0.00 | 59 | 1008.5 |
| 20260505224449 | 71 | 96 | 0.0 | 2.0 | 0.00 | 0.00 | 0.00 | 59 | 1008.4 |
| 20260505223951 | 71 | 51 | 1.0 | 2.0 | 0.00 | 0.00 | 0.00 | 59 | 1008.3 |
| 20260505223450 | 71 | 328 | 1.0 | 2.0 | 0.00 | 0.00 | 0.00 | 59 | 1008.3 |
| 20260505222950 | 71 | 114 | 0.0 | 2.0 | 0.00 | 0.00 | 0.00 | 59 | 1008.4 |
| 20260505222449 | 71 | 106 | 1.0 | 3.0 | 0.00 | 0.00 | 0.00 | 58 | 1008.5 |
| 20260505221949 | 71 | 126 | 2.0 | 4.0 | 0.00 | 0.00 | 0.00 | 58 | 1008.7 |
| 20260505221450 | 72 | 20 | 0.0 | 1.0 | 0.00 | 0.00 | 0.00 | 57 | 1008.6 |
| 20260505220949 | 72 | 354 | 1.0 | 2.0 | 0.00 | 0.00 | 0.00 | 57 | 1008.5 |
| 20260505220449 | 73 | 107 | 1.0 | 3.0 | 0.00 | 0.00 | 0.00 | 57 | 1008.4 |
| 20260505215953 | 73 | 124 | 1.0 | 2.0 | 0.00 | 0.00 | 0.00 | 56 | 1008.5 |
| 20260505215449 | 74 | 265 | 1.0 | 2.0 | 0.00 | 0.00 | 0.00 | 55 | 1008.3 |
| 20260505214949 | 74 | 313 | 1.0 | 3.0 | 0.00 | 0.00 | 0.00 | 54 | 1008.3 |
| 20260505214449 | 75 | 88 | 1.0 | 4.0 | 0.00 | 0.00 | 0.00 | 54 | 1008.3 |
| 20260505213505 | 76 | 152 | 2.0 | 5.0 | 0.00 | 0.00 | 0.00 | 52 | 1008.3 |
| 20260505212949 | 76 | 123 | 0.0 | 2.0 | 0.00 | 0.00 | 0.00 | 53 | 1008.2 |
| 20260505212449 | 76 | 200 | 0.0 | 1.0 | 0.00 | 0.00 | 0.00 | 53 | 1008.3 |
| 20260505211949 | 76 | 231 | 1.0 | 3.0 | 0.00 | 0.00 | 0.00 | 53 | 1008.2 |
| 20260505211449 | 76 | 73 | 1.0 | 4.0 | 0.00 | 0.00 | 0.00 | 53 | 1008.2 |
| 20260505210950 | 77 | 95 | 2.0 | 5.0 | 0.00 | 0.00 | 0.00 | 53 | 1008.1 |
| 20260505210450 | 76 | 143 | 0.0 | 2.0 | 0.00 | 0.00 | 0.00 | 54 | 1008.1 |
| 20260505205949 | 76 | 258 | 1.0 | 3.0 | 0.00 | 0.00 | 0.00 | 53 | 1008.1 |
| 20260505205449 | 76 | 206 | 1.0 | 2.0 | 0.00 | 0.00 | 0.00 | 54 | 1008.1 |
| 20260505204950 | 76 | 93 | 1.0 | 2.0 | 0.00 | 0.00 | 0.00 | 53 | 1008.2 |
| 20260505204450 | 76 | 57 | 1.0 | 5.0 | 0.00 | 0.00 | 0.00 | 53 | 1008.3 |
| 20260505203949 | 76 | 212 | 0.0 | 2.0 | 0.00 | 0.00 | 0.00 | 54 | 1008.2 |
| 20260505203451 | 76 | 134 | 0.0 | 2.0 | 0.00 | 0.00 | 0.00 | 54 | 1008.1 |
| 20260505202950 | 76 | 110 | 1.0 | 3.0 | 0.00 | 0.00 | 0.00 | 54 | 1008.2 |
| 20260505202450 | 77 | 120 | 0.0 | 2.0 | 0.00 | 0.00 | 0.00 | 53 | 1008.3 |
| 20260505201949 | 77 | 258 | 0.0 | 2.0 | 0.00 | 0.00 | 0.00 | 54 | 1008.4 |
| 20260505201450 | 77 | 8 | 1.0 | 3.0 | 0.00 | 0.00 | 0.00 | 53 | 1008.4 |
| 20260505200950 | 77 | 73 | 1.0 | 3.0 | 0.00 | 0.00 | 0.00 | 52 | 1008.5 |
| 20260505200450 | 77 | 93 | 1.0 | 2.0 | 0.00 | 0.00 | 0.00 | 52 | 1008.5 |
| 20260505195950 | 77 | 259 | 0.0 | 3.0 | 0.00 | 0.00 | 0.00 | 54 | 1008.5 |
| 20260505195450 | 77 | 128 | 2.0 | 4.0 | 0.00 | 0.00 | 0.00 | 52 | 1008.7 |
| 20260505194950 | 77 | 143 | 1.0 | 4.0 | 0.00 | 0.00 | 0.00 | 53 | 1008.7 |
| 20260505194449 | 77 | 193 | 1.0 | 3.0 | 0.00 | 0.00 | 0.00 | 53 | 1008.8 |
| 20260505193950 | 77 | 232 | 1.0 | 3.0 | 0.00 | 0.00 | 0.00 | 53 | 1008.8 |
| 20260505193450 | 77 | 107 | 1.0 | 2.0 | 0.00 | 0.00 | 0.00 | 53 | 1008.9 |
| 20260505192949 | 77 | 152 | 1.0 | 3.0 | 0.00 | 0.00 | 0.00 | 53 | 1008.9 |
| 20260505192450 | 77 | 127 | 1.0 | 2.0 | 0.00 | 0.00 | 0.00 | 54 | 1008.9 |
| 20260505191949 | 77 | 10 | 1.0 | 2.0 | 0.00 | 0.00 | 0.00 | 53 | 1008.9 |
| 20260505191451 | 77 | 216 | 1.0 | 3.0 | 0.00 | 0.00 | 0.00 | 54 | 1008.9 |
| 20260505190950 | 78 | 117 | 2.0 | 6.0 | 0.00 | 0.00 | 0.00 | 53 | 1009.1 |
| 20260505190450 | 78 | 166 | 1.0 | 2.0 | 0.00 | 0.00 | 0.00 | 53 | 1009.2 |
| 20260505185950 | 78 | 150 | 1.0 | 3.0 | 0.00 | 0.00 | 0.00 | 52 | 1009.2 |
| 20260505185449 | 78 | 78 | 1.0 | 2.0 | 0.00 | 0.00 | 0.00 | 51 | 1009.3 |
| 20260505184950 | 78 | 96 | 1.0 | 6.0 | 0.00 | 0.00 | 0.00 | 52 | 1009.4 |
| 20260505184449 | 78 | 44 | 2.0 | 3.0 | 0.00 | 0.00 | 0.00 | 52 | 1009.3 |
| 20260505183950 | 79 | 115 | 2.0 | 3.0 | 0.00 | 0.00 | 0.00 | 51 | 1009.4 |
| 20260505183450 | 80 | 50 | 2.0 | 3.0 | 0.00 | 0.00 | 0.00 | 50 | 1009.4 |
| 20260505182952 | 80 | 83 | 2.0 | 4.0 | 0.00 | 0.00 | 0.00 | 51 | 1009.4 |
| 20260505182450 | 80 | 240 | 1.0 | 5.0 | 0.00 | 0.00 | 0.00 | 51 | 1009.3 |
| 20260505181950 | 80 | 77 | 1.0 | 3.0 | 0.00 | 0.00 | 0.00 | 51 | 1009.3 |
| 20260505181450 | 81 | 100 | 1.0 | 3.0 | 0.00 | 0.00 | 0.00 | 50 | 1009.3 |
| 20260505180949 | 81 | 269 | 1.0 | 2.0 | 0.00 | 0.00 | 0.00 | 50 | 1009.3 |
| 20260505180449 | 81 | 113 | 1.0 | 3.0 | 0.00 | 0.00 | 0.00 | 48 | 1009.3 |
| 20260505175949 | 81 | 95 | 1.0 | 2.0 | 0.00 | 0.00 | 0.00 | 49 | 1009.3 |
| 20260505175449 | 81 | 130 | 1.0 | 3.0 | 0.00 | 0.00 | 0.00 | 48 | 1009.3 |
| 20260505174950 | 81 | 116 | 1.0 | 4.0 | 0.00 | 0.00 | 0.00 | 47 | 1009.4 |
| 20260505174450 | 81 | 89 | 2.0 | 6.0 | 0.00 | 0.00 | 0.00 | 47 | 1009.5 |
| 20260505173950 | 81 | 107 | 2.0 | 5.0 | 0.00 | 0.00 | 0.00 | 48 | 1009.5 |
| 20260505173449 | 80 | 123 | 1.0 | 3.0 | 0.00 | 0.00 | 0.00 | 48 | 1009.5 |
| 20260505172950 | 80 | 138 | 1.0 | 2.0 | 0.00 | 0.00 | 0.00 | 49 | 1009.5 |
| 20260505172450 | 80 | 136 | 1.0 | 2.0 | 0.00 | 0.00 | 0.00 | 50 | 1009.6 |
| 20260505171949 | 79 | 94 | 2.0 | 5.0 | 0.00 | 0.00 | 0.00 | 49 | 1009.5 |
| 20260505171449 | 79 | 80 | 0.0 | 3.0 | 0.00 | 0.00 | 0.00 | 49 | 1009.6 |
| 20260505170950 | 79 | 67 | 1.0 | 2.0 | 0.00 | 0.00 | 0.00 | 49 | 1009.6 |
| 20260505170450 | 79 | 120 | 1.0 | 3.0 | 0.00 | 0.00 | 0.00 | 49 | 1009.7 |
| 20260505165950 | 78 | 77 | 1.0 | 2.0 | 0.00 | 0.00 | 0.00 | 50 | 1009.8 |
| 20260505165450 | 78 | 46 | 1.0 | 3.0 | 0.00 | 0.00 | 0.00 | 50 | 1009.9 |
| 20260505164950 | 78 | 104 | 2.0 | 6.0 | 0.00 | 0.00 | 0.00 | 50 | 1010.0 |
| 20260505164451 | 78 | 131 | 2.0 | 5.0 | 0.00 | 0.00 | 0.00 | 50 | 1010.0 |
| 20260505163949 | 78 | 116 | 1.0 | 3.0 | 0.00 | 0.00 | 0.00 | 50 | 1010.0 |
| 20260505163458 | 78 | 112 | 1.0 | 2.0 | 0.00 | 0.00 | 0.00 | 51 | 1009.9 |
| 20260505162950 | 78 | 71 | 1.0 | 2.0 | 0.00 | 0.00 | 0.00 | 50 | 1010.0 |
| 20260505162450 | 78 | 111 | 1.0 | 3.0 | 0.00 | 0.00 | 0.00 | 51 | 1010.1 |
| 20260505161952 | 77 | 306 | 0.0 | 2.0 | 0.00 | 0.00 | 0.00 | 52 | 1010.1 |
| 20260505161450 | 77 | 243 | 1.0 | 2.0 | 0.00 | 0.00 | 0.00 | 51 | 1010.3 |
| 20260505160950 | 77 | 98 | 1.0 | 4.0 | 0.00 | 0.00 | 0.00 | 52 | 1010.5 |
| 20260505160450 | 77 | 27 | 1.0 | 2.0 | 0.00 | 0.00 | 0.00 | 51 | 1010.6 |
| 20260505152950 | 75 | 69 | 2.0 | 6.0 | 0.00 | 0.00 | 0.00 | 53 | 1010.8 |
| 20260505152450 | 75 | 114 | 1.0 | 4.0 | 0.00 | 0.00 | 0.00 | 55 | 1010.8 |
| 20260505151949 | 75 | 90 | 1.0 | 4.0 | 0.00 | 0.00 | 0.00 | 54 | 1010.8 |
| 20260505151450 | 75 | 102 | 1.0 | 2.0 | 0.00 | 0.00 | 0.00 | 54 | 1011.0 |
| 20260505150951 | 74 | 82 | 1.0 | 3.0 | 0.00 | 0.00 | 0.00 | 54 | 1011.0 |
| 20260505150449 | 74 | 71 | 1.0 | 2.0 | 0.00 | 0.00 | 0.00 | 55 | 1011.2 |
| 20260505140450 | 69 | 26 | 1.0 | 3.0 | 0.00 | 0.00 | 0.00 | 61 | 1011.4 |
| 20260505124950 | 60 | 28 | 1.0 | 2.0 | 0.00 | 0.00 | 0.00 | 80 | 1011.2 |
| 20260505124450 | 60 | 108 | 1.0 | 2.0 | 0.00 | 0.00 | 0.00 | 81 | 1010.9 |
| 20260505123949 | 59 | 60 | 1.0 | 2.0 | 0.00 | 0.00 | 0.00 | 82 | 1011.0 |
| 20260505123010 | 58 | 84 | 0.0 | 1.0 | 0.00 | 0.00 | 0.00 | 84 | 1011.2 |
| 20260505122451 | 57 | 0 | 0.0 | 0.0 | 0.00 | 0.00 | 0.00 | 86 | 1011.0 |
| 20260505121950 | 57 | 304 | 0.0 | 1.0 | 0.00 | 0.00 | 0.00 | 87 | 1011.3 |
| 20260505121449 | 57 | 0 | 0.0 | 0.0 | 0.00 | 0.00 | 0.00 | 89 | 1011.3 |
| 20260505120950 | 57 | 0 | 0.0 | 0.0 | 0.00 | 0.00 | 0.00 | 89 | 1011.3 |
| 20260505120449 | 56 | 0 | 0.0 | 0.0 | 0.00 | 0.00 | 0.00 | 88 | 1011.2 |
| 20260505115949 | 56 | 0 | 0.0 | 0.0 | 0.00 | 0.00 | 0.00 | 88 | 1011.2 |
| 20260505115451 | 56 | 0 | 0.0 | 0.0 | 0.00 | 0.00 | 0.00 | 90 | 1011.3 |
| 20260505114958 | 55 | 0 | 0.0 | 0.0 | 0.00 | 0.00 | 0.00 | 90 | 1011.3 |
| 20260505114453 | 55 | 0 | 0.0 | 0.0 | 0.00 | 0.00 | 0.00 | 91 | 1011.4 |
| 20260505113949 | 54 | 0 | 0.0 | 0.0 | 0.00 | 0.00 | 0.00 | 93 | 1011.5 |
| 20260505113449 | 53 | 0 | 0.0 | 0.0 | 0.00 | 0.00 | 0.00 | 95 | 1011.4 |
| 20260505112949 | 52 | 74 | 0.0 | 0.0 | 0.00 | 0.00 | 0.00 | 99 | 1011.5 |
| 20260505112451 | 51 | 0 | 0.0 | 0.0 | 0.00 | 0.00 | 0.00 | 100 | 1011.5 |
| 20260505111949 | 50 | 0 | 0.0 | 0.0 | 0.00 | 0.00 | 0.00 | 99 | 1011.4 |
| 20260505111450 | 49 | 0 | 0.0 | 0.0 | 0.00 | 0.00 | 0.00 | 99 | 1011.5 |
| 20260505110949 | 48 | 0 | 0.0 | 0.0 | 0.00 | 0.00 | 0.00 | 99 | 1011.6 |
| 20260505110449 | 48 | 0 | 0.0 | 0.0 | 0.00 | 0.00 | 0.00 | 100 | 1011.6 |
| 20260505101950 | 46 | 0 | 0.0 | 0.0 | 0.00 | 0.00 | 0.00 | 99 | 1010.7 |
| 20260505101450 | 46 | 0 | 0.0 | 0.0 | 0.00 | 0.00 | 0.00 | 99 | 1010.6 |
| 20260505100949 | 46 | 0 | 0.0 | 0.0 | 0.00 | 0.00 | 0.00 | 99 | 1010.5 |
| 20260505100449 | 46 | 0 | 0.0 | 0.0 | 0.00 | 0.00 | 0.00 | 99 | 1010.5 |
| 20260505095950 | 46 | 0 | 0.0 | 0.0 | 0.00 | 0.00 | 0.00 | 99 | 1010.4 |
| 20260505095450 | 46 | 0 | 0.0 | 0.0 | 0.00 | 0.00 | 0.00 | 99 | 1010.4 |
| 20260505094949 | 46 | 0 | 0.0 | 0.0 | 0.00 | 0.00 | 0.00 | 100 | 1010.4 |
| 20260505094450 | 46 | 0 | 0.0 | 0.0 | 0.00 | 0.00 | 0.00 | 99 | 1010.2 |
| 20260505093952 | 46 | 0 | 0.0 | 0.0 | 0.00 | 0.00 | 0.00 | 99 | 1010.2 |
| 20260505093449 | 46 | 0 | 0.0 | 0.0 | 0.00 | 0.00 | 0.00 | 100 | 1010.3 |
| 20260505092949 | 46 | 0 | 0.0 | 0.0 | 0.00 | 0.00 | 0.00 | 100 | 1010.3 |
| 20260505092449 | 46 | 0 | 0.0 | 0.0 | 0.00 | 0.00 | 0.00 | 99 | 1010.4 |
| 20260505091956 | 46 | 0 | 0.0 | 0.0 | 0.00 | 0.00 | 0.00 | 99 | 1010.3 |
| 20260505091450 | 46 | 0 | 0.0 | 0.0 | 0.00 | 0.00 | 0.00 | 100 | 1010.3 |
| 20260505090949 | 46 | 0 | 0.0 | 0.0 | 0.00 | 0.00 | 0.00 | 100 | 1010.3 |
| 20260505090450 | 46 | 0 | 0.0 | 0.0 | 0.00 | 0.00 | 0.00 | 99 | 1010.3 |
| 20260505085949 | 46 | 0 | 0.0 | 0.0 | 0.00 | 0.00 | 0.00 | 99 | 1010.4 |
| 20260505085450 | 46 | 0 | 0.0 | 0.0 | 0.00 | 0.00 | 0.00 | 99 | 1010.3 |
| 20260505084949 | 46 | 0 | 0.0 | 0.0 | 0.00 | 0.00 | 0.00 | 99 | 1010.2 |
| 20260505084450 | 46 | 0 | 0.0 | 0.0 | 0.00 | 0.00 | 0.00 | 99 | 1010.3 |
| 20260505083950 | 46 | 0 | 0.0 | 0.0 | 0.00 | 0.00 | 0.00 | 99 | 1010.3 |
| 20260505083449 | 46 | 0 | 0.0 | 0.0 | 0.00 | 0.00 | 0.00 | 99 | 1010.3 |
| 20260505082949 | 46 | 0 | 0.0 | 0.0 | 0.00 | 0.00 | 0.00 | 99 | 1010.4 |
| 20260505082449 | 46 | 0 | 0.0 | 0.0 | 0.00 | 0.00 | 0.00 | 98 | 1010.4 |
| 20260505081951 | 46 | 0 | 0.0 | 0.0 | 0.00 | 0.00 | 0.00 | 98 | 1010.3 |
| 20260505081450 | 47 | 61 | 0.0 | 1.0 | 0.00 | 0.00 | 0.00 | 98 | 1010.4 |
| 20260505080952 | 47 | 0 | 0.0 | 0.0 | 0.00 | 0.00 | 0.00 | 98 | 1010.4 |
| 20260505080450 | 47 | 0 | 0.0 | 0.0 | 0.00 | 0.00 | 0.00 | 98 | 1010.5 |
| 20260505075949 | 47 | 0 | 0.0 | 0.0 | 0.00 | 0.00 | 0.00 | 98 | 1010.4 |
| 20260505075449 | 47 | 0 | 0.0 | 0.0 | 0.00 | 0.00 | 0.00 | 98 | 1010.4 |
| 20260505074950 | 47 | 0 | 0.0 | 0.0 | 0.00 | 0.00 | 0.00 | 98 | 1010.4 |
| 20260505074449 | 47 | 0 | 0.0 | 0.0 | 0.00 | 0.00 | 0.00 | 98 | 1010.3 |
| 20260505073951 | 46 | 0 | 0.0 | 0.0 | 0.00 | 0.00 | 0.00 | 98 | 1010.3 |
| 20260505073450 | 46 | 0 | 0.0 | 0.0 | 0.00 | 0.00 | 0.00 | 98 | 1010.2 |
| 20260505072949 | 46 | 0 | 0.0 | 0.0 | 0.00 | 0.00 | 0.00 | 98 | 1010.2 |
| 20260505072449 | 46 | 0 | 0.0 | 0.0 | 0.00 | 0.00 | 0.00 | 98 | 1010.2 |
| 20260505071950 | 46 | 0 | 0.0 | 0.0 | 0.00 | 0.00 | 0.00 | 98 | 1010.2 |
| 20260505071449 | 47 | 0 | 0.0 | 0.0 | 0.00 | 0.00 | 0.00 | 98 | 1010.2 |